When you browse on this site, cookies collect data to enhance your experience and personalize the content and advertising you see.
Visit our Privacy Policy to learn more. By continuing to use the site, you agree to this use of cookies and data.
  • In Belgium
  • List of Countries
  • For 7 days
  • Water Temperature
  • Satellite Maps
  • Weather Map
  • Weather Widgets
  • user-avatar
    Login

    Hourly Weather Ans

    Today, 24 January, Thursday

    Time Temperature Precipitation Wind Pressure Humidity
    00:00 -4°C° 0 mm 2 mps 740 mmHg 89%
    01:00 -5°C° 0 mm 2 mps 740 mmHg 89%
    02:00 -5°C° 0 mm 2 mps 740 mmHg 89%
    03:00 -5°C° 0 mm 2 mps 740 mmHg 89%
    04:00 -4°C° 0 mm 1 mps 741 mmHg 91%
    05:00 -4°C° 0 mm 1 mps 741 mmHg 93%
    06:00 -5°C° 0 mm 0 mps 742 mmHg 95%
    07:00 -5°C° 0 mm 0 mps 742 mmHg 92%
    08:00 -5°C° 0 mm 0 mps 742 mmHg 90%
    09:00 -4°C° 0 mm 0 mps 742 mmHg 88%
    10:00 -2°C° 0 mm 1 mps 743 mmHg 85%
    11:00 -1°C° 0 mm 1 mps 743 mmHg 81%
    12:00 -2°C° 0 mm 2 mps 743 mmHg 78%
    13:00 -2°C° 0 mm 2 mps 743 mmHg 81%
    14:00 -2°C° 0 mm 2 mps 743 mmHg 84%
    15:00 -1°C° 0 mm 2 mps 743 mmHg 87%
    16:00 -2°C° 0 mm 2 mps 744 mmHg 90%
    17:00 -2°C° 0 mm 2 mps 744 mmHg 93%
    18:00 0°C° 0 mm 1 mps 744 mmHg 96%
    19:00 0°C° 0.1 mm 1 mps 744 mmHg 96%
    20:00 0°C° 0.1 mm 1 mps 745 mmHg 96%
    21:00 0°C° 0.1 mm 1 mps 745 mmHg 96%
    22:00 -2°C° 0.1 mm 2 mps 745 mmHg 96%
    23:00 -2°C° 0.1 mm 2 mps 745 mmHg 96%

    Tomorrow, 25 January, Friday

    Time Temperature Precipitation Wind Pressure Humidity
    00:00 -2°C° 0.1 mm 2 mps 745 mmHg 96%
    01:00 -3°C° 0 mm 2 mps 745 mmHg 96%
    02:00 -3°C° 0 mm 2 mps 746 mmHg 95%
    03:00 -4°C° 0 mm 2 mps 746 mmHg 95%
    04:00 -4°C° 0 mm 2 mps 746 mmHg 95%
    05:00 -4°C° 0 mm 2 mps 746 mmHg 95%
    06:00 -4°C° 0 mm 2 mps 746 mmHg 94%
    07:00 -4°C° 0 mm 2 mps 746 mmHg 93%
    08:00 -4°C° 0 mm 3 mps 746 mmHg 91%
    09:00 -2°C° 0 mm 3 mps 747 mmHg 89%
    10:00 -3°C° 0 mm 4 mps 747 mmHg 87%
    11:00 -2°C° 0 mm 4 mps 747 mmHg 86%
    12:00 -1°C° 0 mm 5 mps 746 mmHg 84%
    13:00 -1°C° 0.1 mm 5 mps 746 mmHg 85%
    14:00 -1°C° 0.1 mm 5 mps 746 mmHg 86%
    15:00 -1°C° 0.1 mm 5 mps 746 mmHg 87%
    16:00 -1°C° 0.2 mm 5 mps 746 mmHg 88%
    17:00 -1°C° 0.2 mm 5 mps 745 mmHg 89%
    18:00 -1°C° 0.2 mm 5 mps 745 mmHg 91%
    19:00 -1°C° 0.2 mm 5 mps 745 mmHg 92%
    20:00 0°C° 0.2 mm 5 mps 745 mmHg 94%
    21:00 0°C° 0.2 mm 5 mps 745 mmHg 96%
    22:00 0°C° 0.1 mm 4 mps 745 mmHg 96%
    23:00 +1°C° 0.1 mm 4 mps 745 mmHg 97%

    Day after tomorrow, 26 January, Saturday

    Time Temperature Precipitation Wind Pressure Humidity
    00:00 +1°C° 0.1 mm 4 mps 745 mmHg 97%
    01:00 +2°C° 0.1 mm 5 mps 744 mmHg 97%
    02:00 +2°C° 0.1 mm 5 mps 744 mmHg 98%
    03:00 +2°C° 0.1 mm 5 mps 744 mmHg 98%
    04:00 +2°C° 0.1 mm 5 mps 744 mmHg 98%
    05:00 +2°C° 0.1 mm 6 mps 743 mmHg 98%
    06:00 +2°C° 0.1 mm 6 mps 743 mmHg 98%
    07:00 +3°C° 0.1 mm 6 mps 743 mmHg 97%
    08:00 +3°C° 0.1 mm 6 mps 743 mmHg 97%
    09:00 +3°C° 0.1 mm 6 mps 743 mmHg 96%
    10:00 +4°C° 0.1 mm 6 mps 742 mmHg 96%
    11:00 +5°C° 0.1 mm 5 mps 742 mmHg 96%
    12:00 +5°C° 0.1 mm 5 mps 742 mmHg 95%
    13:00 +5°C° 0.1 mm 5 mps 741 mmHg 95%
    14:00 +4°C° 0.1 mm 6 mps 741 mmHg 94%
    15:00 +4°C° 0.1 mm 6 mps 740 mmHg 94%
    16:00 +3°C° 0 mm 6 mps 739 mmHg 93%
    17:00 +3°C° 0 mm 6 mps 739 mmHg 91%
    18:00 +3°C° 0 mm 7 mps 738 mmHg 90%
    19:00 +3°C° 0.1 mm 7 mps 737 mmHg 90%
    20:00 +3°C° 0.1 mm 7 mps 736 mmHg 90%
    21:00 +3°C° 0.1 mm 7 mps 735 mmHg 90%
    22:00 +3°C° 0.5 mm 7 mps 734 mmHg 89%
    23:00 +3°C° 0.5 mm 7 mps 733 mmHg 89%

    27 January, Sunday

    Time Temperature Precipitation Wind Pressure Humidity
    00:00 +2°C° 0.5 mm 8 mps 732 mmHg 88%
    01:00 +3°C° 0.7 mm 7 mps 731 mmHg 88%
    02:00 +3°C° 0.7 mm 7 mps 730 mmHg 89%
    03:00 +3°C° 0.7 mm 6 mps 729 mmHg 89%
    04:00 +3°C° 0.2 mm 6 mps 728 mmHg 89%
    05:00 +3°C° 0.2 mm 6 mps 727 mmHg 88%
    06:00 +3°C° 0.2 mm 6 mps 726 mmHg 87%
    07:00 +3°C° 0.3 mm 6 mps 726 mmHg 86%
    08:00 +3°C° 0.3 mm 6 mps 725 mmHg 85%
    09:00 +3°C° 0.3 mm 7 mps 724 mmHg 85%
    10:00 +3°C° 0.4 mm 7 mps 724 mmHg 84%
    11:00 +3°C° 0.4 mm 7 mps 723 mmHg 84%
    12:00 +4°C° 0.4 mm 7 mps 723 mmHg 83%
    13:00 +4°C° 0.1 mm 6 mps 723 mmHg 84%
    14:00 +5°C° 0.1 mm 5 mps 722 mmHg 84%
    15:00 +5°C° 0.1 mm 4 mps 722 mmHg 85%
    16:00 +5°C° 0.3 mm 4 mps 722 mmHg 88%
    17:00 +4°C° 0.3 mm 4 mps 723 mmHg 91%
    18:00 +4°C° 0.3 mm 4 mps 723 mmHg 94%
    19:00 +4°C° 0.2 mm 4 mps 723 mmHg 95%
    20:00 +3°C° 0.2 mm 4 mps 724 mmHg 96%
    21:00 +3°C° 0.2 mm 4 mps 724 mmHg 97%
    22:00 +3°C° 0.6 mm 4 mps 725 mmHg 96%
    23:00 +2°C° 0.6 mm 5 mps 726 mmHg 95%

    28 January, Monday

    Time Temperature Precipitation Wind Pressure Humidity
    00:00 +2°C° 0.6 mm 5 mps 726 mmHg 95%
    01:00 +2°C° 1.3 mm 5 mps 727 mmHg 95%
    02:00 +2°C° 1.3 mm 5 mps 728 mmHg 94%
    03:00 +2°C° 1.3 mm 5 mps 728 mmHg 94%
    04:00 +1°C° 0.5 mm 6 mps 730 mmHg 91%
    05:00 0°C° 0.5 mm 7 mps 731 mmHg 88%
    06:00 -1°C° 0.5 mm 8 mps 732 mmHg 85%
    07:00 -1°C° 0.3 mm 8 mps 733 mmHg 84%
    08:00 -1°C° 0.3 mm 8 mps 735 mmHg 83%
    09:00 -2°C° 0.3 mm 8 mps 736 mmHg 82%
    10:00 -1°C° 0.1 mm 7 mps 737 mmHg 78%
    11:00 -1°C° 0.1 mm 7 mps 738 mmHg 75%
    12:00 -1°C° 0.1 mm 7 mps 739 mmHg 71%
    13:00 -1°C° 0 mm 6 mps 739 mmHg 72%
    14:00 0°C° 0 mm 5 mps 740 mmHg 72%
    15:00 +1°C° 0 mm 3 mps 740 mmHg 73%
    16:00 +1°C° 0.1 mm 3 mps 741 mmHg 77%
    17:00 0°C° 0.1 mm 3 mps 741 mmHg 81%
    18:00 0°C° 0.1 mm 3 mps 742 mmHg 85%
    19:00 -1°C° 0.1 mm 3 mps 742 mmHg 87%
    20:00 -1°C° 0.1 mm 3 mps 742 mmHg 89%
    21:00 -1°C° 0.1 mm 3 mps 743 mmHg 91%
    22:00 -1°C° 0.1 mm 3 mps 743 mmHg 89%
    23:00 -1°C° 0.1 mm 3 mps 742 mmHg 88%

    29 January, Tuesday

    Time Temperature Precipitation Wind Pressure Humidity
    00:00 -2°C° 0.1 mm 4 mps 742 mmHg 87%
    01:00 -3°C° 0 mm 4 mps 742 mmHg 87%
    02:00 -3°C° 0 mm 4 mps 742 mmHg 87%
    03:00 -4°C° 0 mm 4 mps 741 mmHg 87%
    04:00 -3°C° 0.3 mm 4 mps 741 mmHg 88%
    05:00 -4°C° 0.3 mm 5 mps 740 mmHg 90%
    06:00 -4°C° 0.3 mm 5 mps 740 mmHg 91%
    07:00 -2°C° 0.2 mm 5 mps 740 mmHg 91%
    08:00 -2°C° 0.2 mm 4 mps 740 mmHg 91%
    09:00 -1°C° 0.2 mm 4 mps 740 mmHg 92%
    10:00 -1°C° 0 mm 4 mps 740 mmHg 90%
    11:00 0°C° 0 mm 4 mps 740 mmHg 88%
    12:00 +1°C° 0 mm 4 mps 740 mmHg 87%
    13:00 +1°C° 0 mm 4 mps 739 mmHg 87%
    14:00 +1°C° 0 mm 4 mps 739 mmHg 87%
    15:00 0°C° 0 mm 4 mps 739 mmHg 87%
    16:00 0°C° 0.1 mm 4 mps 739 mmHg 88%
    17:00 0°C° 0.1 mm 4 mps 738 mmHg 89%
    18:00 -1°C° 0.1 mm 4 mps 738 mmHg 91%
    19:00 -1°C° 0.3 mm 4 mps 738 mmHg 92%
    20:00 -1°C° 0.3 mm 4 mps 737 mmHg 93%
    21:00 0°C° 0.3 mm 3 mps 737 mmHg 94%
    22:00 0°C° 0 mm 3 mps 736 mmHg 94%
    23:00 0°C° 0 mm 3 mps 735 mmHg 94%
    Show more